CZ-4 DEB, 26211

Orbit data source: Space-Track

CZ-4 DEB, 26211 is space debris in SSO originally from a launch on Thu, 14 Oct 1999 UTC launched from the Taiyaun Space Center, China (TSC). Debris objects in space refer to the collection of defunct objects orbiting the Earth. Examples of debris include non-operational satellites, rocket bodies, and fragments generated from explosions, collisions, or faulty payload assembly.

Loading next visibility...
Identifier
26211, 1999-057CZ
Orbit
SSO
Country
Flag of CNCN / PRC
Related business
Manufacturer
Unknown
Mission
Spacecraft
Bus & Motor
Unknown
Mass
Unknown
Launch date (UTC)
1999-10-14 (26 years ago)
Launch vehicle
Unknown
Launch site
Taiyaun Space Center, China (TSC)
Object type
Payload
Rocket body
Debris
Shape & HBR
Unknown shape, 0.1 m
Radar Cross Section
Small (<0.1 m²)

Expand to show TLE details & history
Last TLE update: 17 hours ago

TLE from 17 hours ago
0 CZ-4 DEB
1 26211U 99057CZ  25350.47712156  .00000229  00000-0  23826-3 0  9997
2 26211  98.9532  68.5789 0540257 351.7373  17.0813 13.33287202249810
Epoch: 2025-12-16T11:27Z
TLE epoch observation values (Epoch: 2025-12-16T11:27:03.302Z)
Latitude
10.57972°
Longitude
169.77723°
Altitude
750.452 km
Speed
7.67 km/s
True Right ascension
04h 27m 36s
True Declination
10° 31' 04"
Sunlit
Object was in full shadow at epoch
Visualization orbit readout
Latitude
Unknown
Longitude
Unknown
Altitude
Unknown
Speed
Unknown
Apparent Right ascension
Unknown
Apparent Declination
Unknown
Sunlit
N/A
Visualization observer readout
Local Sidereal Time
03:26:21
Azimuth
Unknown
Elevation
Unknown
Doppler factor
Unknown
Orbital elements
Apogee altitude
1,537.387 km
Perigee altitude
725.943 km
Semi-major axis
7,509.802 km
Eccentricity
0.05403
Inclination
98.9532°
RAAN
68.5789°
Arg. of periapsis
351.7373°
True anomaly
19.02447°
Mean anomaly
17.0813°
Eccentric anomaly
18.03989°
Mean motion
3.33504 °/min
Orbital period
107.94 mins
BSTAR
0.00023826
Loading maneuver chart data...
Computing Atmospheric mass density...
Loading historical data...
Loading historical data...
Loading historical data...
Loading historical data...
Loading historical data...
Loading historical data...
Loading historical data...

Documentation

Showing up to 5 results
|